Regional Weather Roundup
Issued by NWS

Home | Current Version | Previous Version | Graphics & Text | Print | Product List | Glossary On
Versions: 1 2 3 4 5 6 7 8 9 10 11 12 13 14 15 16 17 18 19 20 21 22 23 24 25 26 27 28 29 30 31 32 33 34 35 36 37 38 39 40 41 42 43 44 45 46 47 48 49 50
000
ASUS43 KIND 020309
RWRIN

WEATHER ROUNDUP FOR INDIANA
NATIONAL WEATHER SERVICE INDIANAPOLIS IN
1100 PM EDT SAT AUG 01 2015

NOTE: "FAIR" INDICATES FEW OR NO CLOUDS BELOW 12,000 FEET WITH NO
SIGNIFICANT WEATHER AND/OR OBSTRUCTIONS TO VISIBILITY.

* - STATION DOES NOT REPORT WEATHER SUCH AS PRECIPITATION OR FOG.

+ - STATION NOT QUALITY CONTROLLED BY THE NATIONAL WEATHER SERVICE.
    USE DATA WITH CAUTION...ESPECIALLY DEWPOINT AND RELATIVE
    HUMIDITY OBSERVATIONS.

INZ001>003-010>013-019-020-020400-
NORTHWEST INDIANA

CITY           SKY/WX    TMP DP  RH WIND       PRES   REMARKS
GARY /AIRPORT/ MOCLDY    77  63  61 W7        29.92
KNOX *+        MOCLDY    70  59  68 SW5       29.93R
LA PORTE +     PTCLDY    73  63  69 SW6       29.94R
MICHIGAN CITY+ PTCLDY    72  59  64 SW8       29.92R
MONTICELLO +   PTCLDY    71  65  83 SW6       29.95S
RENSSELAER +   PTCLDY    72  64  78 SW6       29.95R
VALPARAISO     MOCLDY    73  62  68 SW8       29.93S

$$

LMZ046-743>745-020400-
SOUTHERN LAKE MICHIGAN

STATION/POSITION TIME  TEMP    WIND        PRES    WAVE
                       AIR SEA DIR/SP/G            HT
                 (UTC) (F)     (DEG/KT/KT) (MB)    (FT)
BURNS HARBOR     0200   79     230/ 12/ 15 1013.2R
MICHIGAN CITY    0200   78     190/ 14/ 18   N/A
5NW MICH CITY    0300   77 74  240/ 14/ 16   N/A     2

$$

INZ004-005-014>016-021>024-020400-
NORTH CENTRAL INDIANA

CITY           SKY/WX    TMP DP  RH WIND       PRES   REMARKS
GOSHEN         CLEAR     69  62  78 SW8       29.92R
LOGANSPORT +   PTCLDY    68  59  73 SW6       29.96S
PERU/GRISSOM   MOCLDY    68  61  80 SW8       29.96R
ROCHESTER +    PTCLDY    73  63  68 SW6       29.95S
SOUTH BEND     PTCLDY    75  61  61 SW10      29.92R
WARSAW +       PTCLDY    72  61  68 SW8       29.93S

$$

INZ006>009-017-018-025>027-020400-
NORTHEAST INDIANA

CITY           SKY/WX    TMP DP  RH WIND       PRES   REMARKS
ANGOLA *+      MOCLDY    66  61  82 CALM      29.93S
AUBURN +       PTCLDY    72  57  60 SW6       29.94S
FORT WAYNE     MOCLDY    71  60  68 SW12      29.95S
HUNTINGTON +   PTCLDY    72  60  67 SW3       29.95S

$$

INZ028-029-035-036-043>045-051>053-020400-
WEST CENTRAL INDIANA

CITY           SKY/WX    TMP DP  RH WIND       PRES   REMARKS
CRAWFORDSVL +  PTCLDY    64  63  96 CALM        N/A
GREENCASTLE +  PTCLDY    64  59  82 CALM      30.00S
LAFAYETTE      PTCLDY    69  64  84 W3        29.96S
TERRE HAUTE    PTCLDY    67  62  84 CALM      29.98R

$$

INZ030>032-037>040-046>048-054>057-064-065-020400-
CENTRAL INDIANA

CITY           SKY/WX    TMP DP  RH WIND       PRES   REMARKS
FISHERS *+     PTCLDY    68  63  83 SW3       29.99S
FRANKFORT +    PTCLDY    67  67 100 S3        30.00S
GREENWOOD *+   CLEAR     64  61  88 CALM      30.00S
INDIANAPOLIS   PTCLDY    72  59  63 W6        29.97F
-EAGLE CREEK   CLEAR     72  59  63 CALM      29.98S
KOKOMO *+      MOCLDY    70  59  68 W7        29.97S
MARION +       MOCLDY    66  59  78 SW6       29.98S
MT COMFORT *+  PTCLDY    68  61  77 S5        29.99S
SHELBYVILLE    CLEAR     67  63  87 SW3       29.98S
ZIONSVILLE +   CLEAR     67  60  77 SW3       29.99S

$$

INZ033-034-041-042-049-050-058-059-020400-
EAST CENTRAL INDIANA

CITY           SKY/WX    TMP DP  RH WIND       PRES   REMARKS
MUNCIE         MOCLDY    71  57  61 SW6       29.98S

$$

INZ060-061-067>069-081>083-085>088-020400-
SOUTHWEST INDIANA

CITY           SKY/WX    TMP DP  RH WIND       PRES   REMARKS
EVANSVILLE     PTCLDY    72  64  76 CALM      29.99R
HUNTINGBURG *+ PTCLDY    70  63  78 CALM      29.99S
WASHINGTON +   PTCLDY    67  63  87 CALM      29.98S

$$

INZ062-063-066-070>080-084-089>092-020400-
SOUTH CENTRAL AND SOUTHEAST INDIANA

CITY           SKY/WX    TMP DP  RH WIND       PRES   REMARKS
BLOOMINGTON    CLEAR     64  62  93 CALM      30.00R
MADISON *+     CLEAR     64  61  88 CALM      30.02S
NORTH VERNON + CLEAR     68  64  88 CALM      30.00S
SEYMOUR +      CLEAR     66  63  88 CALM      29.99S

$$




USA.gov is the U.S. government's official web portal to all federal, state and local government web resources and services.